logo
Games tagged Sokoban
# Game Release date
Price
Score rank
(Userscore / Metascore)
Owners
Players
Playtime (Median)
Developer(s)
Publisher(s)
1 Stephen's Sausage Roll Apr 18, 2016 $29.99N/A (N/A/90%)50,000 .. 100,0000%00:00 (00:00)increpare gamesincrepare games
2 Baba Is You Mar 13, 2019 $14.99N/A (N/A/87%)500,000 .. 1,000,0000%00:00 (00:00)Hempuli OyHempuli Oy
3 Sokobond Jul 21, 2014 $9.99N/A (N/A/82%)20,000 .. 50,0000%00:00 (00:00)Alan Hazelden, Lee Shang LunDraknek
4 Bonfire Peaks Sep 30, 2021 $19.99N/A (N/A/81%)0 .. 20,0000%00:00 (00:00)Corey MartinDraknek
5 Catherine Classic Jan 10, 2019 $19.99N/A (N/A/80%)200,000 .. 500,0000%00:00 (00:00)ATLUSSEGA
6 Room to Grow Feb 25, 2021 $6.49N/A (N/A/76%)0 .. 20,0000%00:00 (00:00)Mischka KamenerMischka Kamener
7 MacGuffin's Curse Apr 19, 2012 $4.99N/A (N/A/73%)20,000 .. 50,0000%00:00 (00:00)BrawsomeBrawsome
8 Felix The Reaper Oct 17, 2019 $9.99N/A (N/A/71%)20,000 .. 50,0000%00:00 (00:00)Kong OrangeDaedalic Entertainment
9 Ittle Dew Jul 23, 2013 $9.99N/A (N/A/67%)100,000 .. 200,0000%00:00 (00:00)LudosityLudosity
10 Wyvern Mar 9, 2021 FreeN/A (N/A)20,000 .. 50,0000%00:00 (00:00)Ghost Track IncGhost Track Inc
11 flaming/million Feb 15, 2021 FreeN/A (N/A)0 .. 20,0000%00:00 (00:00)nilson carrollnilson carroll
12 Roce's Journey Oct 30, 2020 FreeN/A (N/A)0 .. 20,0000%00:00 (00:00)聖Rawrence聖Rawrence, RMAsia
13 Little Square Things Sep 29, 2019 FreeN/A (N/A)200,000 .. 500,0000%00:00 (00:00)G.ReedVR Gallery
14 B.i.t.Lock Sep 6, 2019 FreeN/A (N/A)0 .. 20,0000%00:00 (00:00)Petorio, Peter HofbauerPeter Hofbauer
15 King Rabbit - Puzzle Jan 25, 2019 FreeN/A (N/A)20,000 .. 50,0000%00:00 (00:00)RareSlothRareSloth
16 Woodways Apr 2, 2018 FreeN/A (N/A)0 .. 20,0000%00:00 (00:00)Sen GamesSen Games
17 Soko Match Sep 16, 2016 N/AN/A (N/A)0 .. 20,0000%00:00 (00:00)AntarsoftRed Mount Media
18 Chip's Challenge 1 May 28, 2015 FreeN/A (N/A)100,000 .. 200,0000%00:00 (00:00)Niffler Ltd.Niffler Ltd.
19 Dr. Kobushi's Labyrinthine Laboratory Sep 14, 2022 $9.99N/A (N/A)0 .. 20,0000%00:00 (00:00)Symbolic SoftwareSymbolic Software
20 Roll On Dice Sep 12, 2022 $4.99N/A (N/A)0 .. 20,0000%00:00 (00:00)EdalbungEdalbung
21 Cursed House 11 Match 3 Puzzle Sep 1, 2022 $6.99N/A (N/A)0 .. 20,0000%00:00 (00:00)LGT SIALGT SIA
22 Dumb Little Robots Aug 24, 2022 $1.99N/A (N/A)0 .. 20,0000%00:00 (00:00)GilgantuanGilgantuan
23 藏梦 Hidden Dream Aug 22, 2022 $12.99N/A (N/A)0 .. 20,0000%00:00 (00:00)锈钻游戏工作室芒果互娱
24 SokoChess Aug 12, 2022 $4.99N/A (N/A)0 .. 20,0000%00:00 (00:00)Daisy GamesDaisy Games
25 Colorful Recolor Aug 10, 2022 $4.99N/A (N/A)0 .. 20,0000%00:00 (00:00)Gagonfe, UlonGagonfe
26 Sissa's Path Aug 9, 2022 $1.99N/A (N/A)0 .. 20,0000%00:00 (00:00)Antonio FilipeAfil Games
27 Arctictopia Aug 8, 2022 $4.99N/A (N/A)0 .. 20,0000%00:00 (00:00)GamtropyGRAVITY GAME ARISE Co., Ltd.
28 Move That Box! Aug 6, 2022 $3.99N/A (N/A)0 .. 20,0000%00:00 (00:00)Crashykk GamesCrashykk Games
29 Cat Dungeon Aug 5, 2022 $1.99N/A (N/A)0 .. 20,0000%00:00 (00:00)Fortcullis GamesFortcullis Games
30 Sokorun: One Box Aug 5, 2022 $0.99N/A (N/A)0 .. 20,0000%00:00 (00:00)SokogamesSokogames
31 Sokobalien Aug 1, 2022 $1.99N/A (N/A)0 .. 20,0000%00:00 (00:00)Cavylabs, MadCat CorpCavylabs
32 SquishCraft Jul 27, 2022 $6.99N/A (N/A)0 .. 20,0000%00:00 (00:00)bcat112abcat112a
33 Chess Dungeons Jul 25, 2022 $0.69N/A (N/A)0 .. 20,0000%00:00 (00:00)Remix Games, Luis FaeRemix Games
34 Toggle Cube Jul 20, 2022 $1.99N/A (N/A)0 .. 20,0000%00:00 (00:00)NanningsGamesNanningsGames
35 Push The Blocks Jul 13, 2022 $1.99N/A (N/A)0 .. 20,0000%00:00 (00:00)Saulo LiraSaulo Lira
36 Escape From Hard Drive Jul 11, 2022 $6.99N/A (N/A)0 .. 20,0000%00:00 (00:00)FewjixFewjix
37 Albert and Puzzle Mansion Jul 8, 2022 $2.99N/A (N/A)0 .. 20,0000%00:00 (00:00)Anette RanaAnette Rana
38 MazezaM - Puzzle Game Jul 5, 2022 $4.99N/A (N/A)0 .. 20,0000%00:00 (00:00)eSolutionseSolutions Nordic AB
39 SnailQuest Jun 28, 2022 $1.99N/A (N/A)0 .. 20,0000%00:00 (00:00)Roman's IrisRoman's Iris
40 Ultimaze Jun 28, 2022 $3.99N/A (N/A)0 .. 20,0000%00:00 (00:00)SolarshaperSolarshaper
41 polyemisokos Jun 23, 2022 $3.99N/A (N/A)0 .. 20,0000%00:00 (00:00)PolySoftPolySoft
42 Tiny Robo Puzzles Jun 20, 2022 $0.99N/A (N/A)0 .. 20,0000%00:00 (00:00)ShironobeShironobe
43 Meet me at NooN Jun 20, 2022 $9.99N/A (N/A)0 .. 20,0000%00:00 (00:00)Pandaroo InteractivePandaroo Interactive
44 Cool Animals Jun 20, 2022 $1.99N/A (N/A)0 .. 20,0000%00:00 (00:00)Cube GamesCube Games
45 Board Jun 17, 2022 $0.99N/A (N/A)0 .. 20,0000%00:00 (00:00)Ma Ma SoftwareMa Ma Software
46 HEN, CHICKS AND CATS Jun 17, 2022 $1.99N/A (N/A)0 .. 20,0000%00:00 (00:00)Rising Moon GamesRising Moon Games
47 Sokolor Jun 17, 2022 $1.99N/A (N/A)0 .. 20,0000%00:00 (00:00)Gray BossGray Boss
48 Dis Pontibus 2 Jun 15, 2022 $6.99N/A (N/A)0 .. 20,0000%00:00 (00:00)Marcos DonnantuoniMarcos Donnantuoni
49 PVNP Jun 13, 2022 $4.99N/A (N/A)0 .. 20,0000%00:00 (00:00)NectarwarePush Forward Media
50 Logica Emotica Jun 7, 2022 $2.99N/A (N/A)0 .. 20,0000%00:00 (00:00)Bart BonteBart Bonte
51 Mida's Adventure Jun 6, 2022 $4.99N/A (N/A)0 .. 20,0000%00:00 (00:00)Recall SoftwareRecall Software
52 Chloe Puzzle Game Jun 3, 2022 $2.99N/A (N/A)0 .. 20,0000%00:00 (00:00)RojehBlackPearl
53 Save All Monsters! May 26, 2022 $4.99N/A (N/A)0 .. 20,0000%00:00 (00:00)Albert EspínAlbert Espín
54 Pingo's Revenge May 24, 2022 $6.99N/A (N/A)0 .. 20,0000%00:00 (00:00)Primer GamesPrimer Games
55 Gem Setter May 19, 2022 $4.89N/A (N/A)0 .. 20,0000%00:00 (00:00)1f1n1tyRedTigerPro
56 Linelith May 19, 2022 $2.99N/A (N/A)20,000 .. 50,0000%00:00 (00:00)Patrick TraynorPatrick Traynor
57 Space Ducks: The great escape May 19, 2022 $3.99N/A (N/A)0 .. 20,0000%00:00 (00:00)6 Toad Games 6 Toad Games
58 TENDY: Robot Gardener May 19, 2022 $3.99N/A (N/A)20,000 .. 50,0000%00:00 (00:00)Michael Schmitt, TJ RichardsonToo Much Tomato
59 Jelly Is Sticky May 19, 2022 $14.99N/A (N/A)0 .. 20,0000%00:00 (00:00)Lunarch StudiosLunarch Studios, WhisperGames
60 Khoros May 18, 2022 $11.99N/A (N/A)0 .. 20,0000%00:00 (00:00)SureksuTeam Spicy Bubble
61 Icemaze Cave: Skate Escape May 18, 2022 $5.99N/A (N/A)0 .. 20,0000%00:00 (00:00)OrnbjornOrnbjorn
62 Ralph's party RPG May 17, 2022 $4.99N/A (N/A)50,000 .. 100,0000%00:00 (00:00)Samuvt2Samuvt2
63 Calmie Dots May 16, 2022 $0.49N/A (N/A)0 .. 20,0000%00:00 (00:00)CuteKateStudioCuteKateStudio
64 I'm on Observation Duty 5 May 13, 2022 $9.99N/A (N/A)0 .. 20,0000%00:00 (00:00)NotoviaNotovia
65 Inferno Apr 29, 2022 $6.99N/A (N/A)0 .. 20,0000%00:00 (00:00)Blue VertexBlue Vertex
66 A Way Back Apr 29, 2022 $0.99N/A (N/A)0 .. 20,0000%00:00 (00:00)Timur Chanturia, Jenya KuzmenkoNever Give Up Games
67 PIPI IS YOU Apr 15, 2022 $0.99N/A (N/A)0 .. 20,0000%00:00 (00:00)微云微云
68 GAMEDOG Apr 8, 2022 $5N/A (N/A)0 .. 20,0000%00:00 (00:00)GHXYK2, bankbankWainstop James
69 No Anglerfish Apr 5, 2022 $0.99N/A (N/A)0 .. 20,0000%00:00 (00:00)Gartek StudiosGartek Studios
70 ShapeGrid Apr 4, 2022 $1.99N/A (N/A)0 .. 20,0000%00:00 (00:00)Matias BontempoMatias Bontempo
71 Sokobos Apr 1, 2022 $4.99N/A (N/A)0 .. 20,0000%00:00 (00:00)Daisy GamesDaisy Games
72 Patrick's Parabox Mar 29, 2022 $19.99N/A (N/A)20,000 .. 50,0000%00:00 (00:00)Patrick TraynorPatrick Traynor
73 Fluffy Milo Mar 28, 2022 $1.99N/A (N/A)0 .. 20,0000%00:00 (00:00)Homemade PuzzlesHomemade Puzzles
74 Pusheep Mar 24, 2022 $6.99N/A (N/A)0 .. 20,0000%00:00 (00:00)EL Mehdi LaghlimiAkamel Studio
75 SokoWinter Mar 13, 2022 $0.99N/A (N/A)0 .. 20,0000%00:00 (00:00)Gray BossGray Boss
76 黎明为歌 - Melody before the Dawn Mar 11, 2022 $4.99N/A (N/A)20,000 .. 50,0000%00:00 (00:00)符绾Eternal Dream
77 Brothers Mar 11, 2022 $0.99N/A (N/A)0 .. 20,0000%00:00 (00:00)Parables GamesParables Games
78 Koni: The Secrets of Castle Mar 9, 2022 $0.99N/A (N/A)0 .. 20,0000%00:00 (00:00)Shido Game StudioShido Game Studio
79 Dungeon Blocks Mar 9, 2022 $3.99N/A (N/A)0 .. 20,0000%00:00 (00:00)Fortcullis GamesFortcullis Games
80 SOKOBOT Mar 4, 2022 $6.29N/A (N/A)0 .. 20,0000%00:00 (00:00)Alexander TaylorAlexander Taylor
81 Pirate's Gold Mar 1, 2022 $9.99N/A (N/A)20,000 .. 50,0000%00:00 (00:00)Jochen Heizmann, Emmanuel HennéAsylum Square
82 Crate Mates Feb 25, 2022 $4.99N/A (N/A)0 .. 20,0000%00:00 (00:00)Emerick GibsonEmerick Gibson
83 Relic Adventure Jan 28, 2022 $1.99N/A (N/A)0 .. 20,0000%00:00 (00:00)IOSEF, Loni.ChouIOSEF, RMAsia
84 Mess Adventures 2 Jan 25, 2022 $3.49N/A (N/A)0 .. 20,0000%00:00 (00:00)Marvelous GamesMarvelous Games
85 Greedy Corgi Jan 21, 2022 $2.99N/A (N/A)0 .. 20,0000%00:00 (00:00)Mamori StudioMamori Studio
86 A Maze Fox Jan 21, 2022 $2.99N/A (N/A)0 .. 20,0000%00:00 (00:00)Chubby PotatoChubby Potato
87 Cat Swap Tiles Jan 19, 2022 $1.99N/A (N/A)0 .. 20,0000%00:00 (00:00)Overaction Game StudioOveraction Game Studio
88 Time Master Jan 18, 2022 $14.99N/A (N/A)0 .. 20,0000%00:00 (00:00)MorpheusZMorpheusZ
89 Box's Dream Jan 14, 2022 $2.99N/A (N/A)20,000 .. 50,0000%00:00 (00:00)EspirArt GamesEspirArt Games
90 Myoubouh Catcher Jan 7, 2022 $11.99N/A (N/A)0 .. 20,0000%00:00 (00:00)Myoubouh CorpMyoubouh Corp
91 Rimebeard Jan 3, 2022 $12.99N/A (N/A)0 .. 20,0000%00:00 (00:00)WackytoasterWackytoaster
92 The Godkiller - Chapter 1 Dec 31, 2021 $19.99N/A (N/A)20,000 .. 50,0000%00:00 (00:00)Seespace LabsSeespace Labs
93 Latarnix Puzzle Dec 24, 2021 $2.99N/A (N/A)0 .. 20,0000%00:00 (00:00)Mad MimicMad Mimic
94 I'm on Observation Duty 4 Dec 22, 2021 $4.99N/A (N/A)0 .. 20,0000%00:00 (00:00)NotoviaNotovia
95 Gardener's Path Dec 22, 2021 $4.99N/A (N/A)20,000 .. 50,0000%00:00 (00:00)Viridino StudiosViridino Studios
96 Chesskoban Bishop Dec 16, 2021 $0.99N/A (N/A)0 .. 20,0000%00:00 (00:00)Heimo Game StudioHeimo Game Studio
97 Superposition Dec 15, 2021 $4.99N/A (N/A)0 .. 20,0000%00:00 (00:00)Anadodic LLCAnadodic LLC
98 Block City: Bus Edition Dec 15, 2021 $1.99N/A (N/A)0 .. 20,0000%00:00 (00:00)Coffee StudioCoffee Studio
99 Mushroom Hunter Nov 30, 2021 $12.99N/A (N/A)0 .. 20,0000%00:00 (00:00)RevilDayGigantum Games
100 Snake Pit Nov 29, 2021 $0.99N/A (N/A)50,000 .. 100,0000%00:00 (00:00)MisteryJay89MisteryJay89
101 Magneta Box Nov 29, 2021 $2.99N/A (N/A)0 .. 20,0000%00:00 (00:00)Laptopcoder11Laptopcoder11
102 The Giraffe World Nov 26, 2021 FreeN/A (N/A)0 .. 20,0000%00:00 (00:00)Quentin DelvalletQuentin Delvallet
103 Cursed House 10 - Match 3 Puzzle Nov 25, 2021 $6.99N/A (N/A)0 .. 20,0000%00:00 (00:00)LGT SIALGT SIA
104 My Very Own Light Oct 30, 2020 $19.99N/A (N/A)0 .. 20,0000%00:00 (00:00)The Wild GamesThe Wild Games
105 Cube Space Nov 25, 2021 $2.49N/A (N/A)0 .. 20,0000%00:00 (00:00)HymooriGagonfe
106 TownOfDestruction Nov 23, 2021 $0.99N/A (N/A)0 .. 20,0000%00:00 (00:00)Jackdaw4617Jackdaw4617
107 Cube Flip Nov 19, 2021 $4.99N/A (N/A)20,000 .. 50,0000%00:00 (00:00)Shubham RajanwarBytehop Studios
108 Lawnmower Game: Pinball Nov 17, 2021 $0.99N/A (N/A)0 .. 20,0000%00:00 (00:00)Tero Lunkka, Valkeala Software, Blackthug, Ruskija game experienceTero Lunkka
109 Roll The Cat Nov 17, 2021 $2.99N/A (N/A)0 .. 20,0000%00:00 (00:00)LeJunesArtLeJunesArt
110 Rob Riches Nov 16, 2021 $6.99N/A (N/A)0 .. 20,0000%00:00 (00:00)MegapopMegapop
111 Smintheus Nov 11, 2021 $4.99N/A (N/A)0 .. 20,0000%00:00 (00:00)Henrik ChukhranHenrik Chukhran
112 Cyber Puzzle HackRow Nov 9, 2021 $4.99N/A (N/A)0 .. 20,0000%00:00 (00:00)Timeless Games, Inc.Unity
113 Chesskoban - Chess Puzzles Nov 5, 2021 $0.99N/A (N/A)0 .. 20,0000%00:00 (00:00)Heimo Game StudioHeimo Game Studio
114 Where Cards Fall Nov 4, 2021 $19.99N/A (N/A)0 .. 20,0000%00:00 (00:00)The Game BandSnowman
115 Sokoramp Oct 29, 2021 $1.99N/A (N/A)0 .. 20,0000%00:00 (00:00)Rare Toad StudioRare Toad Studio
116 DUSK '82: ULTIMATE EDITION Oct 22, 2021 $6.99N/A (N/A)0 .. 20,0000%00:00 (00:00)David SzymanskiNew Blood Interactive
117 Slap The Rocks Oct 21, 2021 $1.99N/A (N/A)20,000 .. 50,0000%00:00 (00:00)Antonio FilipeAFIL Games
118 Luffy: Way Back Home Oct 21, 2021 $1.99N/A (N/A)0 .. 20,0000%00:00 (00:00)Overaction Game StudioOveraction Game Studio
119 Pilie Pals Oct 15, 2021 $4.99N/A (N/A)0 .. 20,0000%00:00 (00:00)KEYREALKEYREAL
120 Dark Crypt Oct 15, 2021 $9.99N/A (N/A)0 .. 20,0000%00:00 (00:00)Daisy GamesDaisy Games
121 LONELY, LUSTFUL, ARROGANT, HATEFUL Oct 13, 2021 $1.99N/A (N/A)0 .. 20,0000%00:00 (00:00)NotoviaNotovia
122 Changes Oct 12, 2021 $9.99N/A (N/A)0 .. 20,0000%00:00 (00:00)Et Al GamesEt Al Games
123 TatuBall: A Minimalist LoFi Puzzle Oct 6, 2021 $1.99N/A (N/A)0 .. 20,0000%00:00 (00:00)TGMTGM
124 Boulders: Puzzle Oct 2, 2021 FreeN/A (N/A)0 .. 20,0000%00:00 (00:00)Farewell GamesFarewell Games
125 Ripple 涟 Oct 1, 2021 $2.99N/A (N/A)0 .. 20,0000%00:00 (00:00)Leta GamesLeta Games
126 Sokobear: Winter Oct 1, 2021 $4.99N/A (N/A)0 .. 20,0000%00:00 (00:00)Bad Kid GamesBad Kid Games
127 Minimal Crypt Sep 30, 2021 $5.99N/A (N/A)0 .. 20,0000%00:00 (00:00)Crafty WeazelCrafty Weazel
128 Lowsy Sep 27, 2021 $0.99N/A (N/A)0 .. 20,0000%00:00 (00:00)XpuxXpux
129 AsMagnet Sep 25, 2021 $2.99N/A (N/A)0 .. 20,0000%00:00 (00:00)StudioYoshikoStudioYoshiko
130 Helper Cat Sep 17, 2021 $0.99N/A (N/A)0 .. 20,0000%00:00 (00:00)Giant HeadGiant Head
131 Blockdown Sep 17, 2021 FreeN/A (N/A)0 .. 20,0000%00:00 (00:00)Vasona StudiosVasona Studios
132 Return home Sep 15, 2021 $5.99N/A (N/A)0 .. 20,0000%00:00 (00:00)苒紫网络苒紫网络
133 Catch The Donut Sep 13, 2021 $0.99N/A (N/A)0 .. 20,0000%00:00 (00:00)ShortStackStudioShortStackStudio
134 Puzzle Light: Connect Sep 10, 2021 $0.99N/A (N/A)0 .. 20,0000%00:00 (00:00)Waidy AndradeCronostase
135 Sokocat - Dungeon Sep 2, 2021 $1.99N/A (N/A)0 .. 20,0000%00:00 (00:00)Rising Moon GamesRising Moon Games
136 天虹书店 Tian Hong Bookstore Sep 1, 2021 $3.99N/A (N/A)0 .. 20,0000%00:00 (00:00)周北Zhoubei周北Zhoubei
137 Don't Touch this Button! Aug 31, 2021 $3.99N/A (N/A)0 .. 20,0000%00:00 (00:00)9 Eyes Game Studio9 Eyes Game Studio, Stately Snail
138 Puzzledorf Aug 30, 2021 $4.99N/A (N/A)0 .. 20,0000%00:00 (00:00)Stuart's Pixel GamesStuart's Pixel Games
139 Ada And Cal Aug 28, 2021 $2.99N/A (N/A)0 .. 20,0000%00:00 (00:00)AntarsoftAntarsoft
140 Space Drone: Rescue Mission Aug 23, 2021 $1.99N/A (N/A)50,000 .. 100,0000%00:00 (00:00)Gray BossGray Boss
141 Side Decide Aug 18, 2021 $4.99N/A (N/A)0 .. 20,0000%00:00 (00:00)Blue Volcano StudioBlue Volcano Studio
142 Puzzle Light: Slide Aug 13, 2021 $0.99N/A (N/A)0 .. 20,0000%00:00 (00:00)Waidy AndradeCronostase
143 Romeow: to the cracked Mars Aug 10, 2021 $0.69N/A (N/A)0 .. 20,0000%00:00 (00:00)Remix GamesRemix Games
144 汉字大冒险 Aug 4, 2021 $3.49N/A (N/A)0 .. 20,0000%00:00 (00:00)InsVolcStudioInsVolcStudio
145 Metal Faith Aug 2, 2021 $9.99N/A (N/A)20,000 .. 50,0000%00:00 (00:00)Youth GameYouth Game
146 LoBlocks Jul 30, 2021 $2.99N/A (N/A)0 .. 20,0000%00:00 (00:00)Colossus Game StudioColossus Game Studio
147 SPACE STORESHIP -スペースストアシップ- Jul 20, 2021 $6.99N/A (N/A)0 .. 20,0000%00:00 (00:00)OtakesanOtakesan
148 Star Chaser in Sea World Jul 20, 2021 $0.99N/A (N/A)0 .. 20,0000%00:00 (00:00)TamTamGamesTamTamGames
149 青之镇物语 Jul 10, 2021 $1.99N/A (N/A)0 .. 20,0000%00:00 (00:00)Clock in dreamClock in dream
150 Loopindex Jun 25, 2021 $4.99N/A (N/A)0 .. 20,0000%00:00 (00:00)SomepxRatalaika Games S.L.
151 Upaon: A Snake's Journey Jun 25, 2021 $2.99N/A (N/A)0 .. 20,0000%00:00 (00:00)Wired Dreams StudioWired Dreams Studio
152 窓の中の先にあるもの Jun 21, 2021 $1.99N/A (N/A)0 .. 20,0000%00:00 (00:00)とぶとぶ
153 Fluffy Cubed Jun 18, 2021 $1.99N/A (N/A)0 .. 20,0000%00:00 (00:00)Naoka GamesNaoka Games
154 Chiasm Jun 18, 2021 $1.99N/A (N/A)0 .. 20,0000%00:00 (00:00)Tim Fowers, Jeff KrauseFowers Games
155 Stars SLIDE Jun 18, 2021 $0.99N/A (N/A)0 .. 20,0000%00:00 (00:00)Sprovieri GamesSprovieri Games
156 War Mines: WW1 Jun 17, 2021 $1.99N/A (N/A)0 .. 20,0000%00:00 (00:00)The 6-month initiativeThe 6-month initiative
157 SokoMatch: Lizard Saga Jun 17, 2021 $0.79N/A (N/A)0 .. 20,0000%00:00 (00:00)ShortStackStudioShortStackStudio
158 GeometryBricks Jun 8, 2021 $2.99N/A (N/A)0 .. 20,0000%00:00 (00:00)Marcin GardyjanMarcin Gardyjan
159 Slikoban Jun 5, 2021 $1.99N/A (N/A)50,000 .. 100,0000%00:00 (00:00)Heimo Game StudioHeimo Game Studio
160 Jessie 'Boom' James - a jigsaw chess tale Jun 4, 2021 $1.99N/A (N/A)0 .. 20,0000%00:00 (00:00)Minimol GamesMinimol Games
161 Loot Slider Jun 1, 2021 $7.99N/A (N/A)0 .. 20,0000%00:00 (00:00)Retrofied GamesRetrofied Games
162 qubo Jun 1, 2021 $7.99N/A (N/A)0 .. 20,0000%00:00 (00:00)CronyxCronyx
163 trappuzzler May 31, 2021 $1.99N/A (N/A)0 .. 20,0000%00:00 (00:00)Kevin De KeyserKevin De Keyser
164 Laruaville 11 Match 3 Puzzle May 29, 2021 $6.99N/A (N/A)0 .. 20,0000%00:00 (00:00)LGT SIALGT SIA
165 Shinobi's Way - a jigsaw chess tale May 27, 2021 $1.99N/A (N/A)0 .. 20,0000%00:00 (00:00)Minimol GamesMinimol Games
166 Dumpy and Bumpy May 27, 2021 $4.99N/A (N/A)0 .. 20,0000%00:00 (00:00)ProgramancerScreenwave Media
167 Space Porter May 18, 2021 $0.99N/A (N/A)0 .. 20,0000%00:00 (00:00)Stas Paty9mkinPiece Of Voxel
168 Sokocat - Islands May 14, 2021 $1.99N/A (N/A)0 .. 20,0000%00:00 (00:00)Rising Moon GamesRising Moon Games
169 A Snake In A Maze May 5, 2021 $3.99N/A (N/A)0 .. 20,0000%00:00 (00:00)Dovii GamesDovii Games
170 Little Fighters on Stream May 3, 2021 $2.99N/A (N/A)0 .. 20,0000%00:00 (00:00)TEAM Black Hat RobotTEAM Black Hat Robot
171 Unlock the Block May 3, 2021 $0.99N/A (N/A)0 .. 20,0000%00:00 (00:00)Hilarious GamesHilarious Games
172 Water Drift May 2, 2021 $0.99N/A (N/A)0 .. 20,0000%00:00 (00:00)HedeHede
173 Robot.Start - Puzzle Game Apr 26, 2021 $0.99N/A (N/A)0 .. 20,0000%00:00 (00:00)Misc.261Misc.261
174 Dark Sheep Apr 23, 2021 $4.99N/A (N/A)0 .. 20,0000%00:00 (00:00)Daisy GamesDaisy Games
175 Control:Override Apr 20, 2021 $2.99N/A (N/A)0 .. 20,0000%00:00 (00:00)B-Deshi InteractiveBrain Station 23 Ltd.
176 Lonely Birds Apr 12, 2021 $13.99N/A (N/A)0 .. 20,0000%00:00 (00:00)Doodad GamesDoodad Games
177 Inner Tao Apr 12, 2021 $2.99N/A (N/A)0 .. 20,0000%00:00 (00:00)Lucas Le Slo, Sergi SabaterLucas Le Slo
178 Puzzle & Chess Apr 9, 2021 $0.99N/A (N/A)0 .. 20,0000%00:00 (00:00)Beni GamesBeni Games
179 Ladder Box Apr 6, 2021 $2.99N/A (N/A)0 .. 20,0000%00:00 (00:00)fengjiongmaxfengjoingmax
180 Bunny's Ban Apr 2, 2021 $1.99N/A (N/A)0 .. 20,0000%00:00 (00:00)ShortStackStudioShortStackStudio
181 Lighton: Duo Mar 31, 2021 $1.99N/A (N/A)0 .. 20,0000%00:00 (00:00)Waidy AndradeCronostase
182 Dungeon Slime 2: Puzzle in the Dark Forest Mar 29, 2021 $0.79N/A (N/A)0 .. 20,0000%00:00 (00:00)Daniel Siqueira AbdelnurPequi studios
183 Sliko Mar 27, 2021 $0.99N/A (N/A)20,000 .. 50,0000%00:00 (00:00)BissonhoHeimo Game Studio
184 Princess Castle Quest Mar 24, 2021 $9.99N/A (N/A)0 .. 20,0000%00:00 (00:00)Piggybank StudiosPiggybank Studios
185 Unblock Me Car Mar 24, 2021 $0.99N/A (N/A)0 .. 20,0000%00:00 (00:00)ShaganovDevShaganovDev
186 Midnight is Lost Mar 17, 2021 $1.99N/A (N/A)0 .. 20,0000%00:00 (00:00)Robotizar GamesRobotizar Games
187 Red Ronin Mar 17, 2021 $7.99N/A (N/A)20,000 .. 50,0000%00:00 (00:00)Wired Dreams StudioWired Dreams Studio
188 Bunny's Flowers Mar 15, 2021 $7.99N/A (N/A)0 .. 20,0000%00:00 (00:00)zuzazuza
189 U27RA R3Z0NANC3 Mar 12, 2021 $4.99N/A (N/A)0 .. 20,0000%00:00 (00:00)DumividDumivid
190 Altered Mar 12, 2021 $11.99N/A (N/A)0 .. 20,0000%00:00 (00:00)GlitchheartRooftop Panda
191 Teodoro Mar 7, 2021 $1.99N/A (N/A)0 .. 20,0000%00:00 (00:00)CosMonkeysCosMonkeys
192 Loch Mess Mar 4, 2021 $1.99N/A (N/A)0 .. 20,0000%00:00 (00:00)AiluruxAilurux
193 Romeow: in the cracked world Mar 3, 2021 $0.99N/A (N/A)0 .. 20,0000%00:00 (00:00)Remix GamesRemix Games
194 Tiny Traffic Feb 25, 2021 $2.99N/A (N/A)0 .. 20,0000%00:00 (00:00)Virtual Turtle GamesVirtual Turtle Games
195 Push The Box 3D Feb 24, 2021 $0.99N/A (N/A)0 .. 20,0000%00:00 (00:00)NanningsGamesNanningsGames
196 Of Mice and Moggies Feb 23, 2021 $4.99N/A (N/A)0 .. 20,0000%00:00 (00:00)BippinbitsBippinbits
197 Chess Brain: Dark Troops Feb 4, 2021 $0.99N/A (N/A)20,000 .. 50,0000%00:00 (00:00)Caio FlavioCaio Flavio
198 A hermit crab is finding a house Feb 4, 2021 $0.99N/A (N/A)0 .. 20,0000%00:00 (00:00)GAGAGAGA
199 Roboggled Jan 21, 2021 $0.99N/A (N/A)0 .. 20,0000%00:00 (00:00)Nathan WardenNathan Warden
200 4096 Jan 20, 2021 $9.99N/A (N/A)50,000 .. 100,0000%00:00 (00:00)JinCycleJinCycle
201 Super Dango Jan 19, 2021 $2.99N/A (N/A)0 .. 20,0000%00:00 (00:00)Super RiceSuper Rice
202 Dungeon and Puzzles Jan 14, 2021 $7.99N/A (N/A)0 .. 20,0000%00:00 (00:00)NekolystDigital Crafter, Nekolyst, Light of Creators
203 Yin Yang Jan 10, 2021 $0.99N/A (N/A)0 .. 20,0000%00:00 (00:00)Thedox GamesThedox Games
204 Sokoban Gianta Dec 29, 2020 $4.99N/A (N/A)0 .. 20,0000%00:00 (00:00)JChip GameJChip Games
205 Color Cube Dec 26, 2020 $0.99N/A (N/A)0 .. 20,0000%00:00 (00:00)NanningsGamesNanningsGames
206 Seek Girl Ⅶ Dec 11, 2020 $1.49N/A (N/A)50,000 .. 100,0000%00:00 (00:00)DSGameDSGame
207 Syzygy Nov 20, 2020 FreeN/A (N/A)0 .. 20,0000%00:00 (00:00)Riccardo Caprari, Gas1312Riccardo Caprari
208 SMIB: Mission Cure Nov 19, 2020 $1.99N/A (N/A)20,000 .. 50,0000%00:00 (00:00)Virtual Arts StudioVirtual Arts Studio
209 Brain Break Nov 18, 2020 $9.99N/A (N/A)0 .. 20,0000%00:00 (00:00)KuKusFs ProductionKuKusFs Production
210 Bunny's Trail Nov 17, 2020 $1.99N/A (N/A)0 .. 20,0000%00:00 (00:00)ShortStackStudioShortStackStudio
211 I'm on Observation Duty 3 Nov 13, 2020 $2.99N/A (N/A)200,000 .. 500,0000%00:00 (00:00)NotoviaNotovia
212 Spherical alliance Oct 27, 2020 $8.99N/A (N/A)0 .. 20,0000%00:00 (00:00)Stefan PreussStefan Preuss
213 Mages and Treasures Oct 27, 2020 $4.99N/A (N/A)0 .. 20,0000%00:00 (00:00)lightUPlightUP
214 Forklift Load Oct 22, 2020 $2.99N/A (N/A)20,000 .. 50,0000%00:00 (00:00)KIMIDORI SOFTKIMIDORI SOFT
215 Chipmunk's Adventures Oct 21, 2020 $0.99N/A (N/A)0 .. 20,0000%00:00 (00:00)IndieWolf GamesIndieWolf Games
216 Wark & Wimble Oct 19, 2020 $5.99N/A (N/A)0 .. 20,0000%00:00 (00:00)Porble GamesPorble Games
217 Kine Oct 19, 2020 $14.99N/A (N/A)0 .. 20,0000%00:00 (00:00)Chump SquadChump Squad
218 Moving Letters Oct 16, 2020 $0.49N/A (N/A)0 .. 20,0000%00:00 (00:00)AiremAirem
219 SOK PRO Oct 13, 2020 $1.99N/A (N/A)0 .. 20,0000%00:00 (00:00)Siberian MouseSiberian Mouse
220 Move 'n' Bloom Oct 12, 2020 $3.99N/A (N/A)0 .. 20,0000%00:00 (00:00)Waldemar UmanizWaldemar Umaniz
221 余烬 Oct 1, 2020 $3.99N/A (N/A)20,000 .. 50,0000%00:00 (00:00)宁夏华夏西部影视城有限公司宁夏华夏西部影视城有限公司
222 Couch Installation Service Oct 1, 2020 $3.99N/A (N/A)0 .. 20,0000%00:00 (00:00)Ilya TishchenkoIlya Tishchenko
223 Sokoban (Boxman) Classic Sep 30, 2020 $6.99N/A (N/A)0 .. 20,0000%00:00 (00:00)JChip GameJChip Games
224 Seek Girl Ⅵ Sep 30, 2020 $1.39N/A (N/A)50,000 .. 100,0000%00:00 (00:00)DSGameDSGame
225 Mess Adventures Sep 30, 2020 $2.54N/A (N/A)0 .. 20,0000%00:00 (00:00)Marvelous GamesMarvelous Games
226 Blackshift Sep 22, 2020 $17.99N/A (N/A)0 .. 20,0000%00:00 (00:00)Robin AllenRobin Allen
227 Mina & Michi Sep 22, 2020 $4.99N/A (N/A)0 .. 20,0000%00:00 (00:00)lightUPlightUP
228 Dungeons & Bombs Sep 22, 2020 $0.99N/A (N/A)0 .. 20,0000%00:00 (00:00)PigeonDevPigeonDev
229 Chuck's Challenge 3D 2020 Sep 21, 2020 $9.99N/A (N/A)0 .. 20,0000%00:00 (00:00)Niffler Ltd.Niffler Ltd.
230 Worm Jazz Sep 21, 2020 $6.99N/A (N/A)0 .. 20,0000%00:00 (00:00)Inconspicuous CreationsInconspicuous Creations
231 Sokodice Sep 17, 2020 $5.99N/A (N/A)0 .. 20,0000%00:00 (00:00)The Socially Awkward StudioThe Socially Awkward Studio
232 A Monster's Expedition Sep 10, 2020 $19.99N/A (N/A)50,000 .. 100,00033.33%02:25 (01:12)Draknek & FriendsDraknek
233 The Golem Sep 10, 2020 $9.99N/A (N/A)0 .. 20,0000%00:00 (00:00)Dom CamusFastRam Design
234 ICONIC Sep 9, 2020 $2.99N/A (N/A)0 .. 20,0000%00:00 (00:00)Cody RauhOptimistic Games
235 Chess Brain Sep 8, 2020 $0.99N/A (N/A)0 .. 20,0000%00:00 (00:00)Caio FlavioCaio Flavio
236 Lost Gems Sep 7, 2020 $6.99N/A (N/A)0 .. 20,0000%00:00 (00:00)pyx-gamespyx-games
237 Mushroom Savior Sep 4, 2020 $3.99N/A (N/A)0 .. 20,0000%00:00 (00:00)Flying Islands TeamFlying Islands Team
238 86 Sep 3, 2020 $4.99N/A (N/A)20,000 .. 50,0000%00:00 (00:00)Loony CodeLoony Code
239 Ninja Castle Escape Aug 28, 2020 $4.99N/A (N/A)0 .. 20,0000%00:00 (00:00)Zoo CorporationZoo Corporation
240 Seek Girl V Aug 28, 2020 $1.19N/A (N/A)20,000 .. 50,0000%00:00 (00:00)DSGameDSGame
241 魔法考核冒险 Aug 25, 2020 $1.99N/A (N/A)20,000 .. 50,0000%00:00 (00:00)阿柒不爱日期阿柒不爱日期
242 Whiskers & Tail Aug 25, 2020 $0.74N/A (N/A)0 .. 20,0000%00:00 (00:00)Dr. Cyril SplutterworthDr. Cyril Splutterworth
243 Dorky Fork Aug 24, 2020 $2.99N/A (N/A)0 .. 20,0000%00:00 (00:00)Aaron MoonAaron Moon
244 Unit 404 Aug 20, 2020 $7.99N/A (N/A)0 .. 20,0000%00:00 (00:00)[OneManBand][OneManBand]
245 SNIKS Aug 12, 2020 $2.99N/A (N/A)0 .. 20,0000%00:00 (00:00)Shelly AlonShelly Alon
246 Stonebot Adventures Aug 11, 2020 $2.99N/A (N/A)0 .. 20,0000%00:00 (00:00)Rayden QuiambaoBahay Kubo Inc.
247 Proto Cuckoo 64 Aug 8, 2020 $4.99N/A (N/A)0 .. 20,0000%00:00 (00:00)TheBigYellowSkipTheBigYellowSkip
248 An Interesting Journey of Monsieur PAF Jul 29, 2020 $14.99N/A (N/A)0 .. 20,0000%00:00 (00:00)ErnestinePlug In Digital, Ernestine
249 Milo's Quest Jul 29, 2020 $4.99N/A (N/A)0 .. 20,0000%00:00 (00:00)lightUPlightUP
250 THE IMPOSSIBLE Jul 24, 2020 $0.49N/A (N/A)200,000 .. 500,0000%00:00 (00:00)IMPOSSIBLE INC, AiremAirem
251 Rollfall: Quest of Acceleration Jul 16, 2020 $0.99N/A (N/A)0 .. 20,0000%00:00 (00:00)Ethan InesEthan ines
252 Déjà Vu Jul 15, 2020 $9.99N/A (N/A)0 .. 20,0000%00:00 (00:00)Eric Freeman, Danielle YoseloffEric Freeman, Danielle Yoseloff
253 Salad Fields Jul 10, 2020 $5.99N/A (N/A)0 .. 20,0000%00:00 (00:00)resnijarsresnijars
254 Snow Trail Jul 10, 2020 $0.99N/A (N/A)0 .. 20,0000%00:00 (00:00)Benjamin KerrBenjamin Kerr
255 Box Factory Jul 9, 2020 $0.99N/A (N/A)0 .. 20,0000%00:00 (00:00)NanningsGamesNanningsGames
256 Astronomia Jul 7, 2020 $4.99N/A (N/A)0 .. 20,0000%00:00 (00:00)Ari VelazquezAri Velazquez
257 Cursed Mummies Jul 3, 2020 $2.99N/A (N/A)0 .. 20,0000%00:00 (00:00)Alex Game Dev.Garage Games
258 Underground Keeper 2 Jun 29, 2020 $9.99N/A (N/A)0 .. 20,0000%00:00 (00:00)LukasHRender System
259 Synonym Jun 25, 2020 $4.99N/A (N/A)0 .. 20,0000%00:00 (00:00)Jack, Chia Chang KooJack, Chia Chang Koo
260 BRDG Jun 19, 2020 $0.99N/A (N/A)0 .. 20,0000%00:00 (00:00)Robert AlvarezRobert Alvarez
261 Lighton Jun 18, 2020 $1.99N/A (N/A)0 .. 20,0000%00:00 (00:00)Waidy AndradeCronostase
262 Betelgeuse May 31, 2020 $0.99N/A (N/A)0 .. 20,0000%00:00 (00:00)Brainstorm SoftwareBrainstorm Software
263 SokoBunny May 22, 2020 $5.99N/A (N/A)0 .. 20,0000%00:00 (00:00)DillyFrameDillyFrame
264 Nullum May 8, 2020 $0.99N/A (N/A)0 .. 20,0000%00:00 (00:00)Misc.261Misc.261
265 Wire May 4, 2020 $1.99N/A (N/A)0 .. 20,0000%00:00 (00:00)Sebastián Rodríguez LeopoldSebastián Rodríguez Leopold
266 Maze Burrow Mar 31, 2020 $9.99N/A (N/A)0 .. 20,0000%00:00 (00:00)Thomas "Kimimaru" DeebThomas "Kimimaru" Deeb
267 Pyro the Exterminator Feb 21, 2020 $4.99N/A (N/A)0 .. 20,0000%00:00 (00:00)Chained DevChained Dev
268 Unlock The King 3 Mar 17, 2020 $0.99N/A (N/A)0 .. 20,0000%00:00 (00:00)Minimol GamesMinimol Games
269 Puddle Knights Mar 3, 2020 $9.99N/A (N/A)0 .. 20,0000%00:00 (00:00)LockpickleLockpickle
270 Snaliens Feb 27, 2020 $7.99N/A (N/A)0 .. 20,0000%00:00 (00:00)JFerreiraJFerreira
271 Unlock The King 2 Jan 31, 2020 $0.99N/A (N/A)20,000 .. 50,0000%00:00 (00:00)Minimol GamesMinimol Games
272 Box Kid Adventures Jan 28, 2020 $9.99N/A (N/A)0 .. 20,0000%00:00 (00:00)T-Rex InteractiveT-Rex interactive, Kurki.games
273 Get the Banana Jan 27, 2020 $2.99N/A (N/A)0 .. 20,0000%00:00 (00:00)Centipede StudiosCentipede Studios
274 MyBot Jan 29, 2020 $6.99N/A (N/A)0 .. 20,0000%00:00 (00:00)Emile BadenhorstMyvar Holdings
275 Give Up The Dupe Dec 17, 2019 $1.99N/A (N/A)0 .. 20,0000%00:00 (00:00)SilbinaryWolfSilbinaryWolf
276 The Big SokoBang Dec 17, 2019 $0.59N/A (N/A)0 .. 20,0000%00:00 (00:00)Peter Nikolaev KoniarovPeter Nikolaev Koniarov
277 Knight Swap 2 Dec 13, 2019 $0.99N/A (N/A)0 .. 20,0000%00:00 (00:00)Minimol GamesMinimol Games
278 DOUBLE INVASION!! Dec 11, 2019 $7.99N/A (N/A)0 .. 20,0000%00:00 (00:00)Goose Ladder GamesGoose Ladder Games
279 Markov Alg Nov 26, 2019 $2.99N/A (N/A)0 .. 20,0000%00:00 (00:00)FewjixFewjix
280 Unlock The King Nov 20, 2019 $0.99N/A (N/A)50,000 .. 100,0000%00:00 (00:00)Minimol GamesMinimol Games
281 Explosive Jake Nov 1, 2019 $0.99N/A (N/A)0 .. 20,0000%00:00 (00:00)PigeonDevPigeonDev
282 Imbroglio Nov 4, 2019 $5.99N/A (N/A)0 .. 20,0000%00:00 (00:00)Rostislav PogosianRostislav Pogosian
283 Knight Swap Oct 22, 2019 $0.99N/A (N/A)0 .. 20,0000%00:00 (00:00)Minimol GamesMinimol Games
284 Subcube Oct 18, 2019 $5.99N/A (N/A)0 .. 20,0000%00:00 (00:00)Dizzy Mind GamesDizzy Mind Games
285 REFLASER Aug 30, 2019 $1.99N/A (N/A)0 .. 20,0000%00:00 (00:00)Dmitry DovgalDmitry Dovgal
286 Unknown Castle Aug 19, 2019 $4.99N/A (N/A)0 .. 20,0000%00:00 (00:00)Pikku-aPikku-a
287 Hyperplex 3D Aug 16, 2019 $4.99N/A (N/A)0 .. 20,0000%00:00 (00:00)LowscopeLowscope
288 Button Button Up! Aug 9, 2019 $11.99N/A (N/A)0 .. 20,0000%00:00 (00:00)Centrosphere GamesCentrosphere Games
289 Mahjong: Magic Chips Jun 25, 2019 $2.99N/A (N/A)0 .. 20,0000%00:00 (00:00)IO GamesIO Games
290 Aircraft War Jun 14, 2019 $1.99N/A (N/A)0 .. 20,0000%00:00 (00:00)ismail ozelismail ozel
291 Flux Caves Jun 7, 2019 $1.99N/A (N/A)0 .. 20,0000%00:00 (00:00)FubenalvoFubenalvo
292 Night Lights Jun 7, 2019 $4.99N/A (N/A)20,000 .. 50,0000%00:00 (00:00)Meridian4, Grave Danger GamesMeridian4
293 Smart Gecko May 15, 2019 $2.99N/A (N/A)0 .. 20,0000%00:00 (00:00)Nayvos GamesNayvos Games
294 Push Pull Mar 8, 2019 $2.99N/A (N/A)0 .. 20,0000%00:00 (00:00)abso1utionabso1ution
295 Dis Pontibus Jan 7, 2019 $4.99N/A (N/A)0 .. 20,0000%00:00 (00:00)Marcos DonnantuoniMarcos Donnantuoni
296 Elemental Connection Dec 14, 2018 $2.99N/A (N/A)0 .. 20,0000%00:00 (00:00)Twelve TilesTwelve Tiles
297 DERU - The Art of Cooperation Nov 7, 2018 $14.99N/A (N/A)0 .. 20,0000%00:00 (00:00)Ink KitInk Kit
298 Hiding Spot Oct 16, 2018 $4.99N/A (N/A)0 .. 20,0000%00:00 (00:00)Corey MartinCorey Martin
299 Resynth Sep 27, 2018 N/AN/A (N/A)0 .. 20,0000%00:00 (00:00)Polyphonic LPPolyphonic LP
300 Gold Magic 800 Sep 25, 2018 $0.49N/A (N/A)0 .. 20,0000%00:00 (00:00)Etqan CompanyEtqan Company
301 Luna and the Moonling Sep 21, 2018 $14.99N/A (N/A)0 .. 20,0000%00:00 (00:00)Greyborn StudiosGreyborn Studios
302 Sokoban: The RPG Sep 6, 2018 $1.49N/A (N/A)0 .. 20,0000%00:00 (00:00)Mike DaasMike Daas
303 YAPP2: Yet Another Pushing Puzzler Jul 20, 2018 $1.99N/A (N/A)0 .. 20,0000%00:00 (00:00)Artless GamesArtless Games
304 Mushroom Quest Jun 18, 2018 $2.99N/A (N/A)0 .. 20,0000%00:00 (00:00)Flying Islands TeamFlying Islands Team
305 Dinosaur Hunt Puzzle Jun 13, 2018 $0.99N/A (N/A)50,000 .. 100,0000%00:00 (00:00)Racing BrosANPA.US
306 Hexologic May 29, 2018 $1.19N/A (N/A)50,000 .. 100,0000%00:00 (00:00)MythicOwlMythicOwl
307 SOK MIN Apr 20, 2018 $1.99N/A (N/A)20,000 .. 50,0000%00:00 (00:00)Siberian MouseSiberian Mouse
308 Loader Apr 13, 2018 $1.99N/A (N/A)0 .. 20,0000%00:00 (00:00)Errigar GamesErrigar Games
309 Molecule - a chemical challenge Mar 2, 2018 $1.99N/A (N/A)0 .. 20,0000%00:00 (00:00)a.mighty.disha.mighty.dish
310 SOK MAX Feb 14, 2018 $1.99N/A (N/A)20,000 .. 50,0000%00:00 (00:00)Siberian MouseSiberian Mouse
311 Dinoku Feb 12, 2018 $2.99N/A (N/A)0 .. 20,0000%00:00 (00:00)Prince Game StudioPrince Game Studio
312 Pipe Push Paradise Jan 18, 2018 $9.99N/A (N/A)0 .. 20,0000%00:00 (00:00)Corey MartinCorey Martin
313 Maze Of Adventures Jan 17, 2018 $9.99N/A (N/A)0 .. 20,0000%00:00 (00:00)OCP, Yuri ChuchmayOCP
314 SAWKOBAN Jan 11, 2018 $9.99N/A (N/A)50,000 .. 100,0000%00:00 (00:00)Bullid GamesBullid Games
315 SOK Dec 22, 2017 $1.99N/A (N/A)0 .. 20,0000%00:00 (00:00)Siberian MouseSiberian Mouse
316 Australian trip Dec 10, 2017 $0.99N/A (N/A)20,000 .. 50,0000%00:00 (00:00)SergioPoveronySergioPoverony
317 Tooki Dec 15, 2017 $9.99N/A (N/A)0 .. 20,0000%00:00 (00:00)Rhino Games IrelandRhino Games Ireland
318 PATHOS Dec 5, 2017 FreeN/A (N/A)0 .. 20,0000%00:00 (00:00)BroguelikeAccordion Games
319 Super BoxMan Ultra Nov 13, 2017 $0.99N/A (N/A)0 .. 20,0000%00:00 (00:00)Rocket Monster GamesRocket Monster Games
320 Santa's Workshop Oct 22, 2017 $0.99N/A (N/A)0 .. 20,0000%00:00 (00:00)Rocket Monster GamesRocket Monster Games
321 Circuit Dude Aug 3, 2017 $5.99N/A (N/A)0 .. 20,0000%00:00 (00:00)Jonathan Holmes (crait)Jonathan Holmes (crait)
322 Tailwind Jul 28, 2017 $1.99N/A (N/A)0 .. 20,0000%00:00 (00:00)ClickGamesClickGames
323 Sokoban Land DX Jul 27, 2017 $4.99N/A (N/A)0 .. 20,0000%00:00 (00:00)lightUPlightUP
324 Pharmakon - Tactical Puzzle Jul 20, 2017 $3.99N/A (N/A)20,000 .. 50,0000%00:00 (00:00)Visumeca GamesVisumeca Games
325 YANKAI'S PEAK. Jul 13, 2017 $5.99N/A (N/A)0 .. 20,0000%00:00 (00:00)Kenny SunKenny Sun
326 Abyssal Zone Jan 26, 2017 $6.99N/A (N/A)0 .. 20,0000%00:00 (00:00)LedLed
327 StartBolita Oct 30, 2016 $0.99N/A (N/A)0 .. 20,0000%00:00 (00:00)JhonGamesJhonGames
328 Soulless: Ray Of Hope Oct 18, 2016 $4.99N/A (N/A)50,000 .. 100,0000%00:00 (00:00)Frisky Fatal GamesMeridian4
329 Underground Keeper Aug 15, 2016 $9.99N/A (N/A)0 .. 20,0000%00:00 (00:00)Render SystemRender System
330 Pepe Porcupine Jun 6, 2016 $0.99N/A (N/A)20,000 .. 50,0000%00:00 (00:00)EnsenaSoftEnsenaSoft
331 Akin Jun 6, 2016 $0.99N/A (N/A)20,000 .. 50,0000%00:00 (00:00)ThinkOfGamesBig Black Bear
332 Polyology Mar 28, 2016 $0.99N/A (N/A)0 .. 20,0000%00:00 (00:00)Gridlock InteractiveGridlock Interactive
333 The Prism Sep 8, 2015 $3.99N/A (N/A)100,000 .. 200,0000%00:00 (00:00)Nikhil. T, Gabriel. HVolens Nolens Games
334 Chip's Challenge 2 May 28, 2015 $4.99N/A (N/A)20,000 .. 50,0000%00:00 (00:00)Niffler Ltd.Niffler Ltd.
335 Snakebird May 4, 2015 $6.99N/A (N/A)50,000 .. 100,0000%00:00 (00:00)Noumenon GamesNoumenon Games
336 Parcel Apr 22, 2015 $4.99N/A (N/A)20,000 .. 50,0000%00:00 (00:00)Polar Bunny LtdPolar Bunny Ltd
337 Rainbow Hero Feb 27, 2015 $4.99N/A (N/A)0 .. 20,0000%00:00 (00:00)Pixel ElephantBigger Boat
338 A Good Snowman Is Hard To Build Feb 25, 2015 $9.99N/A (N/A)50,000 .. 100,0000%00:00 (00:00)Alan Hazelden, Benjamin DavisDraknek
339 Schein Oct 9, 2014 $4.99N/A (N/A)100,000 .. 200,0000%00:00 (00:00)Zeppelin StudioMeridian4
340 English Country Tune Aug 9, 2012 $4.99N/A (N/A)200,000 .. 500,0000%00:00 (00:00)increpare gamesincrepare games
Overview

Sokoban

Games with this tag: 340
Average userscore: N/A%
Average metascore: 78.56%
Average playtime: 02:25
Total copies owned: 6,152,000
Average price: $4.77
Help

Owners: Estimated number of people owning this game. The number might be way too small for new releases and sometimes way too big for games that had free weekend event recently. Read more on About page.

Playtime: Average hours played in total per person that have actually launched this game since March 2009. This time is calculated for the whole lifetime, not for the particular year.

Average score: Average users and metacritic score for all games with this score assigned.

Average playtime: Average lifetime playtime for all games where this data is available.

Games in this genre: Self-explaining - number of games with this tag. Only inculdes games with sales data available.

Total copies owned: Refers to total copies of games with this tag acquired by users for the lifetime. Includes copies sold, downloaded for free and given out.

This number might be too small for recently released games or too big for games that had a free weekend in the last couple of months.

Graphs

Login required.

Please register or log in to see this information.

Login required.

Please register or log in to see this information.